Regional Weather Roundup
Issued by NWS Newport/Morehead, NC

Current Version | Previous Version | Text Only | Print | Product List | Glossary On
Versions: 1 2 3 4 5 6 7 8 9 10 11 12 13 14 15 16 17 18 19 20 21 22 23 24 25 26 27 28 29 30 31 32 33 34 35 36 37 38 39 40 41 42 43 44 45 46 47 48 49 50
000 ASUS42 KMHX 172313 RWRMHX WEATHER ROUNDUP FOR EASTERN NORTH CAROLINA NATIONAL WEATHER SERVICE NEWPORT/MOREHEAD CITY NC 600 PM EST TUE JAN 17 2017 NOTE: "FAIR" INDICATES FEW OR NO CLOUDS BELOW 12,000 FEET WITH NO SIGNIFICANT WEATHER AND/OR OBSTRUCTIONS TO VISIBILITY NCZ015>017-031-032-045>047-102-103-180000- NORTH COAST CITY SKY/WX TMP DP RH WIND PRES REMARKS EDENTON CLOUDY 60 55 83 S7 30.10F ELIZABETH CITY CLOUDY 58 54 86 S12 30.08F KITTY HAWK NOT AVBL MANTEO CLOUDY 53 50 90 S8 30.12S $$ NCZ045>047-081-094-103-104-180000- CENTRAL COAST CITY SKY/WX TMP DP RH WIND PRES REMARKS FRISCO PTCLDY 56 49 77 S3 30.14F $$ NCZ095-097-098-100-101-180000- SOUTHERN COAST CITY SKY/WX TMP DP RH WIND PRES REMARKS BEAUFORT PTCLDY 59 58 96 SW6 30.16S CEDAR ISLAND NOT AVBL JACKSONVILLE MOCLDY 63 59 87 CALM 30.15F PINEY ISLAND PTCLDY N/A N/A N/A S8 30.15S WILMINGTON CLOUDY 63 57 81 S5 30.16F $$ NCZ011>013-027>030-043-044-078>080-089-090>093-098-180000- COASTAL PLAIN CITY SKY/WX TMP DP RH WIND PRES REMARKS AHOSKIE MOCLDY 57 53 86 CALM 30.09F CLINTON CLOUDY 60 56 88 CALM 30.15S ELIZABETHTOWN CLOUDY 63 57 80 S3 30.15F GOLDSBORO MOCLDY 61 59 93 S7 30.11F GREENVILLE PTCLDY 61 55 82 SW8 30.13F HAVELOCK CLOUDY 61 57 87 S5 30.16F KENANSVILLE CLOUDY 61 55 82 CALM 30.15F KINSTON CLOUDY 61 55 82 S7 30.13F NEW BERN CLOUDY 63 55 75 SW6 30.15F RICHLANDS CLOUDY 59 56 89 CALM 30.16F ROCKY MOUNT CLOUDY 57 55 93 S10 30.11F WASHINGTON CLOUDY 61 56 83 SW6 30.12F WHITEVILLE CLOUDY 64 57 80 CALM 30.16S $$ AMZ130-135-150-152-154-156-158-170-250-252-270-ANZ085-086-088-633-658-670-180000- MARINE OBSERVATIONS STATION/POSITION TIME TEMP WIND PRES WAVE SWELL AIR SEA DIR/SP/G HT/PER HT/PER (UTC) (F) (DEG/KT/KT) (MB) (FT/S) (FT/S) CHESAPEAKE LIGHT NOT AVBL 64 E VA BEACH 2250 57 56 210/ 14/ 16 1018.6 2/ 8 2/ 8 DUCK 2248 58 44 200/ 9/ 11 1018.7 2 E DUCK 2300 45 N/A 2/ 8 OREGON INLET 2248 190/ 10/ 11 N/A 13E OREGON INLT NOT AVBL HATTERAS CG 2248 56 53 180/ 4/ 6 1020.3 DIAMOND BUOY 2250 70 73 240/ 16/ 19 1020.8 3/ 8 2/ 8 CAPE LOOKOUT 2300 64 210/ 10/ 13 1021.2 BEAUFORT LAB 2248 60 50 220/ 3/ 6 1020.4 30 SE NEW RVR IN 2208 62 63 230/ 6/ 8 1022.0 30 SE NEW RVR IN 2243 64 N/A 2/10 27 SE WRIGHTSVLE 2208 67 69 220/ 14/ 19 1021.6 5 SE WRIGHTSVLE 2208 58 210/ 10/ 16 1021.6 225 S CAPE HAT 2250 72 71 210/ 12/ 14 1024.1 3/ 8 2/ 8 41 SE CHARLESTON 2250 69 71 220/ 8/ 10 1022.4 2/10 2/10 $$

USA.gov is the U.S. government's official web portal to all federal, state and local government web resources and services.